OPS 4988 DEB, 12099

Orbit data source: Space-Track

OPS 4988 DEB, 12099 is space debris in LEO originally from a launch on Tue, 09 Mar 1965 UTC launched from the Air Force Western Test Range (AFWTR). Debris objects in space refer to the collection of defunct objects orbiting the Earth. Examples of debris include non-operational satellites, rocket bodies, and fragments generated from explosions, collisions, or faulty payload assembly.

Loading next visibility...
Identifier
12099, 1965-016K
Orbit
LEO
Last TLE update
17 hours ago
Origin
Manufacturer
Unknown
Mission
Spacecraft
Bus & Motor
Unknown
Mass
Unknown
Launch date (UTC)
1965-03-09 (60 years ago)
Launch vehicle
Unknown
Launch site
Air Force Western Test Range (AFWTR)
Object type
Payload
Rocket body
Debris
Shape & HBR
Unknown
Radar Cross Section
Small (<0.1 m²)

Expand to show TLE details & history

TLE from 17 hours ago
0 OPS 4988 DEB
1 12099U 65016K   25181.69745024  .00000209  00000-0  16408-3 0  9996
2 12099  70.0762 275.7828 0018191   8.1298 141.9143 14.04604050 77665
Epoch: 2025-06-30T16:44Z
TLE epoch observation values (Epoch: 2025-06-30T16:44:19.7Z)
Latitude
27.93255°
Longitude
-85.32389°
Altitude
891.141 km
Speed
7.404 km/s
True Right ascension
05h 39m 02s
True Declination
27° 47' 35"
Sunlit
Object was in daylight at epoch
Visualization orbit readout
Latitude
64.85456°
Longitude
-126.00813°
Altitude
890.44 km
Speed
7.412 km/s
Apparent Right ascension
07h 00m 59s
Apparent Declination
24° 02' 38"
Sunlit
Object is in daylight
Visualization observer readout
Local Sidereal Time
21:15:27
Azimuth
32.279° NE
Elevation
-18.774°
Doppler factor
1
Orbital elements
Apogee altitude
889.119 km
Perigee altitude
862.727 km
Semi-major axis
7,254.06 km
Eccentricity
0.00182
Inclination
70.0762°
RAAN
275.7828°
Arg. of periapsis
8.1298°
True anomaly
Unknown
Mean anomaly
141.9143°
Eccentric anomaly
Unknown
Mean motion
3.51295 °/min
Orbital period
102.48 mins
BSTAR
0.00016408
Loading maneuver chart data...
Loading SW <> Apogee altitude chart data...
Loading historical data...
Loading historical data...
Loading historical data...
Loading historical data...
Loading historical data...
Loading historical data...
Loading historical data...

OPS 4988 DEB Visibility forecast

Observer location: undefined°, undefined°

Span
Click to sort rows by Start time (UTC) header in descending order
Start Az.
Max El. time (UTC)
Max El. Az.
Max El.
End time (UTC)
End Az.
10 mins2025-07-01 16:30:08.869Z353.156° N2025-07-01 16:35:08.869Z62.854° ENE31.558°2025-07-01 16:40:08.869Z124.701° SE
8 mins2025-07-01 18:16:08.869Z306.768° NW2025-07-01 18:20:08.869Z247.858° W27.55°2025-07-01 18:24:08.869Z198.685° SSW
9 mins2025-07-02 07:28:08.869Z198.299° SSW2025-07-02 07:32:08.869Z137.571° SSE44.679°2025-07-02 07:37:08.869Z26.558° NE
5 mins2025-07-02 09:16:08.869Z290.199° WNW2025-07-02 09:18:08.869Z314.429° NW16.028°2025-07-02 09:21:08.869Z347.542° N
|